Flag for Bosnia-Herzegovina Weather past 2 weeks in Sarajevo, Bosnia-Herzegovina

Now
48 °F

Passing clouds.


Feels Like: 48 °F
Forecast: 29 / 49 °F
Wind: 2 mph from North

Location: Sarajevo / Butmir

Current Time: Dec 18, 2014 at 3:41:55 PM

Latest Report: Dec 18, 2014 at 3:00 PM


Visibility: N/A

Pressure: 30.12 "Hg

Humidity: 71%

Dew point: 39 °F

Location of SarajevoLocation

Historic Weather in Sarajevo — Graph

°F

Sarajevo temperature yesterday

Maximum temperature yesterday: 48 °F (at 1:30 PM)
Minimum temperature yesterday: 39 °F (at 5:30 AM)
Average temperature yesterday: 43 °F

Past Weeks' High & Low Weather Summary

 TemperatureHumidityPressure
High52 °F (Dec 14, 2:00 PM)100% (Dec 4, 2:00 AM)30.30 "Hg (Dec 4, 2:00 AM)
Low23 °F (Dec 13, 7:30 AM)58% (Dec 13, 2:00 PM)29.80 "Hg (Dec 17, 3:00 AM)
Average39 °F91%30.07 "Hg
* Reported Dec 3 3:30 PM — Dec 18 3:00 PM, Sarajevo, Weather by CustomWeather, © 2014

Note: Actual official high and low records may vary slightly from our data, if they occured in-between our weather recording intervals... More about our weather records

Advertising

Sarajevo weather history for previous 24 hours

 ConditionsComfort  
Time TempWeatherWind HumidityBarometerVisibility
3:00 PM
Dec 18
48 °FPassing clouds.2 mph71%30.12 "HgN/A
2:30 PM50 °FPassing clouds.1 mph67%30.12 "HgN/A
2:00 PM50 °FPassing clouds.2 mph67%30.12 "HgN/A
1:30 PM48 °FScattered clouds.3 mph71%30.12 "Hg5 mi
1:00 PM46 °FScattered clouds.1 mph76%30.12 "Hg5 mi
12:30 PM46 °FBroken clouds.3 mph76%30.12 "Hg5 mi
12:00 PM46 °FScattered clouds.2 mph76%30.12 "Hg5 mi
11:30 AM45 °FScattered clouds.3 mph81%30.12 "Hg5 mi
11:00 AM45 °FPartly sunny.1 mph93%30.12 "Hg4 mi
10:30 AM45 °FPartly sunny.1 mph87%30.09 "Hg4 mi
10:00 AM45 °FPartly sunny.2 mph87%30.09 "Hg4 mi
9:30 AM43 °FFog.2 mph100%30.09 "Hg3 mi
9:00 AM43 °FFog.2 mph100%30.09 "Hg3 mi
8:30 AM43 °FFog.2 mph100%30.07 "Hg2 mi
8:00 AM43 °FFog.No wind93%30.04 "Hg2 mi
7:30 AM41 °FFog.No wind100%30.04 "Hg2 mi
7:00 AM41 °FFog.1 mph100%30.04 "Hg2 mi
6:30 AM41 °FFog.1 mph100%30.01 "Hg1 mi
6:00 AM41 °FFog.No wind100%30.01 "Hg1 mi
5:30 AM41 °FFog.No wind100%30.01 "Hg1 mi
4:00 AM41 °FFog.2 mph100%29.98 "Hg1 mi
3:00 AM41 °FFog.1 mph100%29.95 "Hg1 mi
2:00 AM41 °FFog.No wind100%29.95 "Hg2 mi
1:00 AM43 °FFog.1 mph93%29.95 "Hg2 mi
12:00 AM41 °FFog.1 mph100%29.95 "Hg2 mi
11:00 PM
Dec 17
41 °FFog.1 mph100%29.95 "Hg2 mi
10:00 PM43 °FFog.1 mph93%29.95 "Hg2 mi
9:30 PM43 °FFog.No wind100%29.95 "Hg3 mi
9:00 PM43 °FFog.1 mph100%29.95 "Hg3 mi
8:30 PM43 °FFog.1 mph100%29.95 "Hg3 mi
8:00 PM43 °FPassing clouds.No wind100%29.95 "Hg4 mi
7:30 PM43 °FPassing clouds.1 mph100%29.95 "Hg4 mi
7:00 PM43 °FLight rain. Overcast.3 mph100%29.95 "Hg4 mi
6:30 PM45 °FLight rain. Fog.7 mph93%29.95 "Hg3 mi
6:00 PM45 °FDrizzle. Fog.3 mph93%29.92 "Hg3 mi
5:30 PM45 °FDrizzle. Fog.3 mph93%29.92 "Hg3 mi
5:00 PM45 °FFog.6 mph93%29.92 "Hg3 mi
4:30 PM45 °FDrizzle. Fog.5 mph100%29.92 "Hg2 mi
4:00 PM46 °FDrizzle. Fog.6 mph93%29.92 "Hg2 mi
3:30 PM46 °FFog.5 mph93%29.89 "Hg2 mi
3:00 PM46 °FFog.2 mph93%29.89 "Hg1 mi
Weather by CustomWeather, © 2014

See weather overviewHow to use our weather pages